{"data":{"norad_id":56126,"epoch":"2026-09-19T23:23:49.383168Z","epoch_age_seconds":154006,"freshness":"FRESH","line1":"1 56126U 23046AL  26262.97487712  .00000527  00000+0  28676-4 0  9994","line2":"2 56126  43.0029 129.7619 0001538 262.7468  97.3209 15.27576352191911","mean_motion":15.27576352,"eccentricity":0.0001538,"inclination_deg":43.0029,"raan_deg":129.7619,"arg_perigee_deg":262.7468,"mean_anomaly_deg":97.3209,"bstar":2.8676e-5,"rev_number":19191,"period_min":94.26697383176,"perigee_km":482.00476738416,"apogee_km":484.11527158735,"semimajor_km":6861.1970194858,"source":"CELESTRAK","updated_at":"2026-09-21T09:00:33.386834Z"}}